Tracking 19832 objects as of 25-Aug-2019
HD Live streaming from Space Station
objects crossing your sky now

COSMOS 2251 DEB

Track COSMOS 2251 DEB now!
10-day predictions


NORAD ID: 35036
Int'l Code: 1993-036AGZ
Perigee: 740.9 km
Apogee: 896.3 km
Inclination: 74.1 °
Period: 101.1 minutes
Semi major axis: 7189 km
RCS: 0.0003 m2 (small)
Launch date: June 16, 1993
Source: Commonwealth of Independent States (former USSR) (CIS)
Launch site: PLESETSK MISSILE AND SPACE COMPLEX (PKMTR)

Note: This is SATELLITE DEBRIS
aabbcc
Your satellite tracking list
Your tracking list is empty




NASA's NSSDC Master Catalog

Two Line Element Set (TLE):
1 35036U 93036AGZ 13089.71680854 +.00005966 +00000-0 +24488-2 0  9992
2 35036 074.0749 230.0672 0108135 310.7742 048.7503 14.24118514205366
Source of the keplerian elements: AFSPC